Statistiken

Seite 301 von 349 |< · · [298] [299] [300] [301] [302] [303] [304] · · >|

Die neuesten Zitate

Nr. Zitat Pkte. Bew. Aufr. Mails Kom. Datum
15001 Wenn der Scherz am besten ist, soll man aufhören. ... -0.5000 2 1731 0 0 26.08.05 00:00
15002 An der Red erkennt man den Mann. ... -0.5000 2 1723 0 0 26.08.05 00:00
15003 Hoffart will Pein haben. ... -0.5000 2 1719 0 0 26.08.05 00:00
15004 Nach der Tat kommt Schweizerrat. ... -0.5000 2 1707 0 0 26.08.05 00:00
15005 Einem Langsamen ist kein warmer Bissen beschert. ... -0.5000 2 1704 0 0 26.08.05 00:00
15006 Er gibt gern -- seinem Maul, wenn ihn hungert. ... -0.5000 2 1693 0 0 26.08.05 00:00
15007 Hüte dich vor dem Pocher, Dir schadet nie der Socher. ... -0.5000 2 1678 0 0 26.08.05 00:00
15008 Sei kein Leckermaul wie Hans, der kaut' an ... -0.5000 2 1677 0 0 26.08.05 00:00
15009 Sieh dich wohl vor, Du greifst die wilde Sau am Ohr. ... -0.5000 2 1667 0 0 26.08.05 00:00
15010 Was sich zweit, das dreit sich gern. ... -0.5000 2 1666 0 0 26.08.05 00:00
15011 Spöttertor steht jedem offen. ... -0.5000 2 1655 0 0 26.08.05 00:00
15012 List gegen List. ... -0.5000 2 1613 0 0 26.08.05 00:00
15013 Viel vertun und wenig erwerben ist der Weg zum Verderben. ... -0.5000 2 1605 0 0 26.08.05 00:00
15014 Schäfer und Schinder sind Geschwisterkinder. ... -0.5000 2 1587 0 0 26.08.05 00:00
15015 Es war noch kein Feierkleid, das nicht Alltagskleid ... -0.5000 2 1565 0 0 26.08.05 00:00
15016 Biedermanns Erbe liegt in allen Landen. ... -0.5000 2 1559 0 0 26.08.05 00:00
15017 St. Urban ist auch ein Weinheld. ... -0.5000 2 1554 0 0 26.08.05 00:00
15018 Mündken wat büt, Mündken wat gemüt. ... -0.5000 2 1543 0 0 26.08.05 00:00
15019 Es ist ein guter Gulden, der hundert erspart. ... -0.5000 2 1541 0 0 26.08.05 00:00
15020 Fürwitz Ist Jungfrauen wenig nütz. ... -0.5000 2 1538 0 0 26.08.05 00:00
15021 Hungrige Flöhe Tun wehe. ... -0.5000 2 1511 0 0 26.08.05 00:00
15022 Es will nicht buttern! ... -0.5000 2 1499 0 0 26.08.05 00:00
15023 Was von Huren geboren, Ist zu huren erkoren. ... -0.5238 21 3351 0 1 26.08.05 00:00
15024 Kundschaft macht Freundschaft, Freundschaft ... -0.5263 38 6486 0 0 26.08.05 00:00
15025 Eine Hand voll Gewalt ist besser als ein Sack voll Recht. ... -0.5294 17 3094 0 0 26.08.05 00:00
15026 Wer seinen Kindern gibt das Brot, Daß er ... -0.5313 32 7441 8 4 26.08.05 00:00
15027 Glück und Unglück Ist aller Morgen Frühstück. ... -0.5385 13 7066 0 0 26.08.05 00:00
15028 Freundes Schläge, liebe Schläge. ... -0.5385 13 3846 0 0 26.08.05 00:00
15029 Die Katze hat bald vergessen, daß sie das Licht halten muß. ... -0.5385 13 3054 0 0 26.08.05 00:00
15030 Wer mir Liebe erzeigt, der bereitet mir Sorge. ... -0.5500 20 4531 1 0 26.08.05 00:00
15031 Grüne Weihnachten, weiße Ostern. ... -0.5532 47 13855 2 18 26.08.05 00:00
15032 Männer sollen reden, Frauen schweigen. ... -0.5532 47 10264 3 49 26.08.05 00:00
15033 Ein Jahr Rente ist hundert Jahr Rente. ... -0.5545 101 6637 0 0 26.08.05 00:00
15034 In Gottes Namen fängt alles Unglück an. ... -0.5556 18 2435 0 0 26.08.05 00:00
15035 Feuchte Hand bedeutet Liebe. ... -0.5714 42 6748 5 1 26.08.05 00:00
15036 Ein Engel flog durchs Zimmer. ... -0.5714 21 10716 2 0 26.08.05 00:00
15037 Erst komm ich und wieder ich und nochmals ... -0.5714 14 5046 2 2 26.08.05 00:00
15038 Soldaten im Frieden sind Öfen im Sommer. ... -0.5714 14 3653 0 0 26.08.05 00:00
15039 Aus Liebe frißt der Wolf das Schaf. ... -0.5714 7 6499 1 0 26.08.05 00:00
15040 Willfahren macht Freunde, Wahrsagen Feinde. ... -0.5714 7 5001 2 0 26.08.05 00:00
15041 Glück ist der Freunde Sommer und Ernte, Unglück ... -0.5714 7 4560 0 0 26.08.05 00:00
15042 Schick dich in die Zeit. ... -0.5714 7 4034 0 0 26.08.05 00:00
15043 Wenig reden altert die Frauen. ... -0.5714 7 3594 0 0 26.08.05 00:00
15044 Gewalt geht vor Recht (Das klagt manch armer Knecht). ... -0.5714 7 3382 0 0 26.08.05 00:00
15045 Heirat der Alten ist ein Ladschreiben an den Totengräber. ... -0.5714 7 3095 0 0 26.08.05 00:00
15046 Hast du Geld, so tritt herfür, Hast du ... -0.5714 7 3059 0 0 26.08.05 00:00
15047 Worte tun's nicht. ... -0.5714 7 2996 0 5 26.08.05 00:00
15048 Wenn die Bauern Eis sch--, dann muß es kalt sein. ... -0.5714 7 2849 1 2 26.08.05 00:00
15049 Man nimmt den Mann beim Wort und den Hund beim Schwanz. ... -0.5714 7 2810 0 4 26.08.05 00:00
15050 Gottes Freund, der Pfaffen Feind. ... -0.5714 7 2749 0 0 26.08.05 00:00

[Favoriten] [Punkte] [Bewertungen] [Aufrufe] [Mails] [Kommentare] [Datum]

Seite 301 von 349 |< · < · [1] [2] [3] [4] [5] [6] [7] [8] [9] [10] [11] [12] [13] [14] [15] [16] [17] [18] [19] [20] [21] [22] [23] [24] [25] [26] [27] [28] [29] [30] [31] [32] [33] [34] [35] [36] [37] [38] [39] [40] [41] [42] [43] [44] [45] [46] [47] [48] [49] [50] [51] [52] [53] [54] [55] [56] [57] [58] [59] [60] [61] [62] [63] [64] [65] [66] [67] [68] [69] [70] [71] [72] [73] [74] [75] [76] [77] [78] [79] [80] [81] [82] [83] [84] [85] [86] [87] [88] [89] [90] [91] [92] [93] [94] [95] [96] [97] [98] [99] [100] [101] [102] [103] [104] [105] [106] [107] [108] [109] [110] [111] [112] [113] [114] [115] [116] [117] [118] [119] [120] [121] [122] [123] [124] [125] [126] [127] [128] [129] [130] [131] [132] [133] [134] [135] [136] [137] [138] [139] [140] [141] [142] [143] [144] [145] [146] [147] [148] [149] [150] [151] [152] [153] [154] [155] [156] [157] [158] [159] [160] [161] [162] [163] [164] [165] [166] [167] [168] [169] [170] [171] [172] [173] [174] [175] [176] [177] [178] [179] [180] [181] [182] [183] [184] [185] [186] [187] [188] [189] [190] [191] [192] [193] [194] [195] [196] [197] [198] [199] [200] [201] [202] [203] [204] [205] [206] [207] [208] [209] [210] [211] [212] [213] [214] [215] [216] [217] [218] [219] [220] [221] [222] [223] [224] [225] [226] [227] [228] [229] [230] [231] [232] [233] [234] [235] [236] [237] [238] [239] [240] [241] [242] [243] [244] [245] [246] [247] [248] [249] [250] [251] [252] [253] [254] [255] [256] [257] [258] [259] [260] [261] [262] [263] [264] [265] [266] [267] [268] [269] [270] [271] [272] [273] [274] [275] [276] [277] [278] [279] [280] [281] [282] [283] [284] [285] [286] [287] [288] [289] [290] [291] [292] [293] [294] [295] [296] [297] [298] [299] [300] [301] [302] [303] [304] [305] [306] [307] [308] [309] [310] [311] [312] [313] [314] [315] [316] [317] [318] [319] [320] [321] [322] [323] [324] [325] [326] [327] [328] [329] [330] [331] [332] [333] [334] [335] [336] [337] [338] [339] [340] [341] [342] [343] [344] [345] [346] [347] [348] [349] · > · >|

Zuletzt gesucht